GW5242 Weather Reports


time (UTC)temp
F
wind
direction
speed
knots
gust
knots
rain 1hr
in
rain 24hr
in
rain mn
in
humidity
%
barometer
mb
20260508051803 47 0 0.0 0.0 0.00 0.24 0.00 86 1014.0
20260508050904 47 0 0.0 0.0 0.00 0.25 0.00 86 1014.1
20260508050003 47 0 0.0 0.0 0.00 0.26 0.00 86 1013.7
20260508045403 47 0 0.0 0.0 0.00 0.26 0.00 86 1013.7
20260508044503 47 0 0.0 0.0 0.00 0.26 0.00 86 1013.7
20260508043604 47 0 0.0 0.0 0.00 0.26 0.00 86 1013.8
20260508042919 47 0 0.0 0.0 0.00 0.26 0.00 86 1013.6
20260508041803 48 0 0.0 0.0 0.00 0.26 0.00 86 1013.9
20260508041117 48 0 0.0 0.0 0.00 0.26 0.00 86 1013.6
20260508040004 48 0 0.0 0.0 0.00 0.26 0.00 86 1013.4
20260508035403 48 0 0.0 0.0 0.00 0.26 0.00 86 1013.6
20260508034718 48 0 0.0 0.0 0.00 0.26 0.00 86 1013.6
20260508033819 48 0 0.0 0.0 0.00 0.27 0.00 86 1013.5
20260508032703 48 110 0.0 0.9 0.00 0.30 0.00 86 1013.5
20260508031803 48 110 0.0 0.9 0.00 0.30 0.00 86 1013.5
20260508030903 48 0 0.0 0.0 0.00 0.30 0.00 86 1013.4
20260508030003 49 0 0.0 0.0 0.00 0.30 0.00 86 1013.5
20260508025403 49 0 0.0 0.0 0.00 0.30 0.00 86 1013.5
20260508024503 49 0 0.0 0.0 0.00 0.30 0.00 86 1013.4
20260508023603 49 0 0.0 0.0 0.00 0.30 0.00 86 1013.6
20260508022703 49 0 0.0 0.0 0.00 0.30 0.00 86 1013.5
20260508021803 49 0 0.0 0.9 0.00 0.30 0.00 86 1013.2
20260508020903 49 110 0.0 0.9 0.00 0.30 0.00 86 1013.3
20260508020004 49 110 0.0 0.9 0.00 0.30 0.00 86 1012.9
20260508015403 49 110 0.0 0.9 0.00 0.30 0.00 86 1013.1
20260508014503 49 110 0.0 2.6 0.00 0.30 0.00 86 1013.1
20260508013603 49 0 0.0 0.0 0.00 0.30 0.00 86 1013.1
20260508012703 49 0 0.0 0.9 0.00 0.30 0.00 86 1013.2
20260508011803 49 0 0.0 0.0 0.00 0.30 0.00 86 1013.2
20260508010903 49 0 0.0 0.0 0.00 0.30 0.00 86 1013.2
20260508010003 49 0 0.0 0.0 0.00 0.30 0.00 86 1013.1
20260508005403 49 0 0.0 0.0 0.00 0.30 0.00 86 1013.3
20260508004504 49 0 0.0 0.0 0.00 0.30 0.00 86 1013.2
20260508003603 49 45 0.0 0.9 0.00 0.30 0.00 86 1012.9
20260508002703 50 45 0.0 0.9 0.00 0.30 0.00 86 1013.2
20260508002017 50 0 0.0 0.0 0.00 0.30 0.00 86 1013.2
20260508000903 50 0 0.0 0.0 0.00 0.30 0.00 86 1013.1
20260508000003 50 0 0.0 0.0 0.00 0.30 0.00 86 1012.9
20260507235403 50 0 0.0 0.0 0.00 0.30 0.00 86 1012.9
20260507234718 50 0 0.0 0.0 0.00 0.30 0.00 86 1012.9
20260507233603 50 0 0.0 0.0 0.00 0.30 0.00 86 1013.0
20260507232703 50 0 0.0 0.9 0.00 0.30 0.00 86 1013.0
20260507231804 50 0 0.0 0.0 0.00 0.30 0.00 86 1013.0
20260507230903 50 0 0.0 0.0 0.00 0.30 0.00 85 1012.9
20260507230005 51 0 0.0 0.0 0.00 0.93 0.00 85 1013.1
20260507225616 51 0 0.0 0.0 0.00 0.93 0.93 85 1012.8
20260507224504 51 0 0.0 0.0 0.00 0.93 0.93 85 1012.9
20260507223603 51 0 0.0 0.0 0.00 0.93 0.93 85 1012.9
20260507222703 51 44 0.0 0.9 0.00 0.93 0.93 85 1012.8
20260507221803 51 45 0.0 0.9 0.00 0.93 0.93 85 1012.9
20260507220903 51 44 0.0 0.9 0.00 0.93 0.93 85 1012.7
20260507220003 51 44 0.0 0.9 0.00 0.93 0.93 85 1012.6
20260507215403 51 44 0.0 0.9 0.00 0.93 0.93 85 1012.8
20260507214503 51 44 0.0 0.9 0.00 0.93 0.93 85 1012.8
20260507213603 51 44 0.9 2.6 0.00 0.93 0.93 85 1012.7
20260507212703 51 45 0.0 0.9 0.00 0.93 0.93 84 1012.7
20260507212017 51 45 0.0 0.9 0.00 0.93 0.93 84 1012.6
20260507210903 51 0 0.0 0.0 0.00 0.93 0.93 84 1012.5
20260507210003 51 45 0.0 0.9 0.00 0.93 0.93 84 1012.5
20260507205403 52 0 0.0 0.0 0.00 0.93 0.93 84 1012.5
20260507204717 52 0 0.0 0.0 0.00 0.93 0.93 84 1012.3
20260507203604 52 0 0.0 0.0 0.00 0.93 0.93 83 1012.2
20260507202918 52 0 0.0 0.9 0.00 0.93 0.93 83 1012.1
20260507202017 52 0 0.0 0.0 0.00 0.93 0.93 83 1012.0
20260507201118 52 0 0.0 0.0 0.00 0.93 0.93 83 1012.1
20260507200003 52 0 0.0 0.0 0.00 0.93 0.93 83 1012.0
20260507195403 52 0 0.0 0.0 0.00 0.93 0.93 83 1011.9
20260507194503 52 45 0.0 0.9 0.00 0.93 0.93 83 1011.9
20260507193603 53 45 0.9 2.6 0.00 0.93 0.93 82 1011.5
20260507192703 53 45 0.0 0.9 0.00 0.93 0.93 82 1011.9
20260507192017 53 45 0.0 0.9 0.00 0.93 0.93 82 1011.8
20260507190904 53 0 0.0 0.0 0.02 0.92 0.92 82 1011.5
20260507190004 53 45 0.0 0.9 0.02 0.92 0.92 82 1011.6
20260507185403 53 45 0.0 0.9 0.02 0.92 0.92 81 1011.6
20260507184718 54 45 0.0 2.6 0.02 0.92 0.92 81 1011.7
20260507183818 54 0 0.0 0.0 0.02 0.92 0.92 81 1011.4
20260507182704 54 0 0.0 0.0 0.02 0.92 0.92 80 1011.1
20260507181803 54 45 0.0 0.9 0.02 0.92 0.92 80 1011.2
20260507180903 55 45 0.0 2.6 0.00 0.90 0.90 80 1011.2
20260507180003 55 49 1.7 4.3 0.00 0.90 0.90 80 1011.4
20260507175403 55 45 2.6 7.0 0.00 0.90 0.90 80 1011.2
20260507174503 56 25 1.7 7.0 0.00 0.90 0.90 80 1011.2
20260507173603 56 42 0.9 3.5 0.00 0.90 0.90 80 1011.2
20260507172916 56 44 0.9 3.5 0.00 0.90 0.90 80 1011.0
20260507171804 56 18 1.7 6.1 0.01 0.90 0.90 80 1011.2
20260507171117 56 2 2.6 6.1 0.01 0.90 0.90 80 1011.0